This is the latest recevied weather packets stored in our database for station/object HB9BTL-13. If no packets are shown the sender has not sent any weather packets the latest 10 day(s).
| Time | Temp. | Humidity | Pressure | Rain* | Wind** | Luminosity | Snow |
|---|---|---|---|---|---|---|---|
| 1777646843 | 22.78° C | 35% | 1022.9 hPa | - | - | - | - |
| 1777645938 | 22.22° C | 36% | 1022.9 hPa | - | - | - | - |
| 1777645032 | 22.22° C | 37% | 1023.1 hPa | - | - | - | - |
| 1777644127 | 22.22° C | 37% | 1023.2 hPa | - | - | - | - |
| 1777643221 | 22.22° C | 37% | 1023.4 hPa | - | - | - | - |
| 1777642316 | 22.22° C | 37% | 1023.5 hPa | - | - | - | - |
| 1777641412 | 21.67° C | 38% | 1023.7 hPa | - | - | - | - |
| 1777640505 | 21.11° C | 38% | 1024 hPa | - | - | - | - |
| 1777639600 | 21.11° C | 40% | 1024.1 hPa | - | - | - | - |
| 1777638694 | 20.56° C | 40% | 1024.3 hPa | - | - | - | - |
| 1777637790 | 20.56° C | 41% | 1024.3 hPa | - | - | - | - |
| 1777636884 | 20.56° C | 40% | 1024.4 hPa | - | - | - | - |
| 1777635979 | 20° C | 41% | 1024.6 hPa | - | - | - | - |
| 1777635073 | 19.44° C | 39% | 1024.7 hPa | - | - | - | - |
| 1777634168 | 18.89° C | 41% | 1024.8 hPa | - | - | - | - |
| 1777633262 | 18.89° C | 41% | 1024.9 hPa | - | - | - | - |
| 1777632357 | 17.78° C | 43% | 1025.1 hPa | - | - | - | - |
| 1777631451 | 18.33° C | 41% | 1025.3 hPa | - | - | - | - |
| 1777630546 | 17.22° C | 39% | 1025.5 hPa | - | - | - | - |
| 1777629641 | 17.22° C | 40% | 1025.6 hPa | - | - | - | - |
| 1777628736 | 16.67° C | 39% | 1025.7 hPa | - | - | - | - |
| 1777627830 | 16.11° C | 39% | 1025.7 hPa | - | - | - | - |
| 1777626925 | 16.11° C | 39% | 1025.8 hPa | - | - | - | - |
| 1777626020 | 16.11° C | 39% | 1025.9 hPa | - | - | - | - |
| 1777625114 | 15.56° C | 38% | 1025.8 hPa | - | - | - | - |
* Rain since midnight (hover to see other rain measurements)
** Current wind speed in m/s (hover to see current wind gust speed)